Starlink 32866

operational
NORAD ID: 62858 Int'l Des: 2025-022 Owner: SPXS Country: US Constellation: starlink
LEOCIRCULAR

Über Starlink 32866

Beschreibung wird geladen...

Live-Position

3D-Globus wird geladen...

Nächste Überflüge

Höhenverlauf

Altitude vs Time

uPlot chart will show altitude changes over time

Zweizeiliger Elementsatz

1 62858U 25022E 25305.41004264 .00012233 00000-0 42470-3 0 9997
2 62858 53.1604 5.1950 0001480 54.1046 306.0092 15.30182011 42269
Epoch: 1. Nov. 2025 • Age: 31 hours

Aktueller Status

Höhe 477.6 km
Geschwindigkeit 7.63 km/s
Subsatellitenpunkt -5.63°S, 105.28°W
Startdatum 2. Feb. 2025
Alter 0.7 years
Typ internet

Technische Details

Klassifizierung Payload
Masse 730.00 kg
Trockenmasse 700.00 kg
Gesamtmasse 730.00 kg
Länge 0.30 m
Durchmesser 4.10 m
Spannweite 29.00 m
Form Box + pan
Hersteller SPXS
Bus-Typ Starlink V2M
Phasenstatus In Orbit
Besitzer/Staat SPXS/US

Große Konstellationen

Loading constellations...